sat.trackr.live / text

‹ back to catalog

STARLINK-30767

NORAD 58126 · 2023-162J

PAYLOAD ACTIVE UNKNOWN

§ Identity

Operator
Country
US
Launch date
2023-10-22
Launch site
AFETR
Launch vehicle
Mass (kg)
RCS (m²)

Purposes: comms

External: N2YO · Heavens-Above · Gunter

§ Orbital elements

Epoch: 2026-09-20T22:13:23.759616Z

Period
94.27 min
Inclination
43.0042°
Eccentricity
0.0001675
Mean motion
15.27574344 rev/d
Perigee alt
481.9 km
Apogee alt
484.2 km
Semi-major
6,861.2 km
B*
-1.0541e-7
RAAN
106.6899°
Arg perigee
271.3258°
Mean anomaly
88.7402°
Rev number
16,220

§ Raw data

STARLINK-307671 58126U 23162J   26263.92596944 -.00000265  00000+0 -10541-6 0  99942 58126  43.0042 106.6899 0001675 271.3258  88.7402 15.27574344162205

JSON: /api/v1/satellites/58126 · /tle

For live sub-satellite position, see the globe view (requires WebGL).

§ Visibility from observer

Set your observer location to see the next 7 days of passes ≥ 10°. The values pass through the URL so the page stays shareable.

No JS? Fill the form by hand. The geolocation button needs JavaScript.